Location: Baia Mare
(47.6567°N, 23.5850°E)
Time: 10:58:27
(UTC+03:00)

ISS - Pass Details

Date: 11 February 2018
Orbit: 402 x 406 km, 51.6° (Epoch: 18 June)

Event Time Altitude Azimuth Distance (km) Brightness Sun altitude
Rises 18:42:10 0° 292° (WNW) 2,321 1.1 -10.6°
Reaches altitude 10° 18:44:19 10° 284° (WNW) 1,458 0.2 -10.9°
Maximum altitude 18:47:23 38° 214° (SW) 627 -2.5 -11.5°
Drops below altitude 10° 18:50:27 10° 144° (SE) 1,453 -1.3 -12.0°
Enters shadow 18:51:16 - 140° (SE) 1,778 -0.9 -12.1°
